TimeEDT,TemperatureF,Dew PointF,Humidity,Sea Level PressureIn,VisibilityMPH,Wind Direction,Wind SpeedMPH,Gust SpeedMPH,PrecipitationIn,Events,Conditions,WindDirDegrees,DateUTC
12:15 AM,55.4,51.8,88,29.89,10.0,Calm,Calm,-,N/A,,Clear,0,2012-10-20 04:15:00
12:35 AM,57.2,51.8,82,29.89,10.0,Calm,Calm,-,N/A,,Clear,0,2012-10-20 04:35:00
12:55 AM,53.6,50.0,88,29.90,10.0,Calm,Calm,-,N/A,,Clear,0,2012-10-20 04:55:00
1:15 AM,53.6,51.8,94,29.90,10.0,Calm,Calm,-,N/A,,Clear,0,2012-10-20 05:15:00
1:35 AM,53.6,51.8,94,29.90,10.0,Calm,Calm,-,N/A,,Clear,0,2012-10-20 05:35:00
1:55 AM,51.8,50.0,94,29.89,10.0,Calm,Calm,-,N/A,,Clear,0,2012-10-20 05:55:00
2:15 AM,53.6,50.0,88,29.90,10.0,Calm,Calm,-,N/A,,Clear,0,2012-10-20 06:15:00
2:35 AM,53.6,50.0,88,29.90,10.0,Calm,Calm,-,N/A,,Clear,0,2012-10-20 06:35:00
2:55 AM,53.6,50.0,88,29.90,10.0,Calm,Calm,-,N/A,,Clear,0,2012-10-20 06:55:00
3:15 AM,53.6,50.0,88,29.90,10.0,Calm,Calm,-,N/A,,Clear,0,2012-10-20 07:15:00
3:35 AM,53.6,50.0,88,29.90,10.0,WNW,3.5,-,N/A,,Clear,290,2012-10-20 07:35:00
3:55 AM,51.8,50.0,94,29.89,10.0,Calm,Calm,-,N/A,,Clear,0,2012-10-20 07:55:00
4:15 AM,51.8,50.0,94,29.90,10.0,Calm,Calm,-,N/A,,Clear,0,2012-10-20 08:15:00
4:35 AM,51.8,50.0,94,29.90,10.0,Calm,Calm,-,N/A,,Clear,0,2012-10-20 08:35:00
4:55 AM,51.8,50.0,94,29.90,10.0,Calm,Calm,-,N/A,,Clear,0,2012-10-20 08:55:00
5:15 AM,51.8,50.0,94,29.90,10.0,West,4.6,-,N/A,,Clear,270,2012-10-20 09:15:00
5:35 AM,51.8,50.0,94,29.91,10.0,West,3.5,-,N/A,,Clear,280,2012-10-20 09:35:00
5:55 AM,51.8,50.0,94,29.92,10.0,Calm,Calm,-,N/A,,Clear,0,2012-10-20 09:55:00
6:15 AM,51.8,50.0,94,29.93,10.0,Calm,Calm,-,N/A,,Clear,0,2012-10-20 10:15:00
6:35 AM,51.8,50.0,94,29.93,10.0,West,3.5,-,N/A,,Clear,270,2012-10-20 10:35:00
6:55 AM,51.8,50.0,94,29.94,10.0,Calm,Calm,-,N/A,,Clear,0,2012-10-20 10:55:00
7:15 AM,51.8,50.0,94,29.94,10.0,Calm,Calm,-,N/A,,Clear,0,2012-10-20 11:15:00
7:35 AM,51.8,50.0,94,29.95,10.0,Calm,Calm,-,N/A,,Clear,0,2012-10-20 11:35:00
7:55 AM,50.0,46.4,87,29.95,10.0,Calm,Calm,-,N/A,,Clear,0,2012-10-20 11:55:00
8:15 AM,50.0,48.2,94,29.96,10.0,Calm,Calm,-,N/A,,Clear,0,2012-10-20 12:15:00
8:35 AM,51.8,50.0,94,29.96,10.0,Calm,Calm,-,N/A,,Clear,0,2012-10-20 12:35:00
8:55 AM,53.6,51.8,94,29.97,10.0,SW,3.5,-,N/A,,Clear,230,2012-10-20 12:55:00
9:15 AM,57.2,51.8,82,29.97,10.0,Calm,Calm,-,N/A,,Clear,0,2012-10-20 13:15:00
9:35 AM,57.2,51.8,82,29.98,10.0,Calm,Calm,-,N/A,,Clear,0,2012-10-20 13:35:00
9:55 AM,59.0,51.8,77,29.98,10.0,Calm,Calm,-,N/A,,Clear,0,2012-10-20 13:55:00
10:15 AM,62.6,51.8,68,29.99,10.0,Calm,Calm,-,N/A,,Clear,0,2012-10-20 14:15:00
10:35 AM,62.6,51.8,68,29.99,10.0,Calm,Calm,-,N/A,,Clear,0,2012-10-20 14:35:00
10:55 AM,66.2,50.0,56,29.99,10.0,NW,3.5,-,N/A,,Clear,320,2012-10-20 14:55:00
11:15 AM,69.8,48.2,46,29.98,10.0,WNW,3.5,-,N/A,,Clear,290,2012-10-20 15:15:00
11:35 AM,71.6,50.0,46,29.98,10.0,NNW,4.6,-,N/A,,Clear,330,2012-10-20 15:35:00
12:15 PM,71.6,44.6,38,29.98,10.0,NW,8.1,-,N/A,,Clear,310,2012-10-20 16:15:00
12:55 PM,73.4,44.6,36,29.97,10.0,WNW,12.7,19.6,N/A,,Clear,300,2012-10-20 16:55:00
1:15 PM,73.4,44.6,36,29.96,10.0,NW,11.5,18.4,N/A,,Clear,310,2012-10-20 17:15:00
1:35 PM,77.0,46.4,34,29.96,10.0,NW,8.1,-,N/A,,Clear,320,2012-10-20 17:35:00
1:55 PM,77.0,46.4,34,29.95,10.0,WNW,12.7,17.3,N/A,,Clear,300,2012-10-20 17:55:00
2:15 PM,77.0,46.4,34,29.94,10.0,WNW,12.7,16.1,N/A,,Clear,290,2012-10-20 18:15:00
2:55 PM,77.0,46.4,34,29.93,10.0,WNW,6.9,-,N/A,,Clear,300,2012-10-20 18:55:00
3:15 PM,77.0,46.4,34,29.92,10.0,NW,10.4,18.4,N/A,,Clear,320,2012-10-20 19:15:00
3:35 PM,77.0,44.6,32,29.92,10.0,West,10.4,16.1,N/A,,Clear,280,2012-10-20 19:35:00
3:55 PM,77.0,46.4,34,29.92,10.0,West,9.2,-,N/A,,Clear,270,2012-10-20 19:55:00
4:15 PM,77.0,44.6,32,29.91,10.0,WNW,8.1,-,N/A,,Clear,290,2012-10-20 20:15:00
4:35 PM,77.0,46.4,34,29.91,10.0,WNW,11.5,-,N/A,,Clear,300,2012-10-20 20:35:00
5:15 PM,77.0,46.4,34,29.91,10.0,WNW,10.4,-,N/A,,Clear,300,2012-10-20 21:15:00
6:15 PM,73.4,46.4,38,29.92,10.0,WNW,8.1,-,N/A,,Clear,300,2012-10-20 22:15:00
6:35 PM,71.6,46.4,41,29.92,10.0,WNW,5.8,-,N/A,,Clear,290,2012-10-20 22:35:00
6:55 PM,71.6,51.8,50,29.93,10.0,WNW,4.6,-,N/A,,Clear,300,2012-10-20 22:55:00
7:15 PM,69.8,51.8,53,29.93,10.0,WNW,4.6,-,N/A,,Clear,290,2012-10-20 23:15:00
7:35 PM,64.4,51.8,64,29.93,10.0,WNW,3.5,-,N/A,,Clear,290,2012-10-20 23:35:00
7:55 PM,62.6,51.8,68,29.94,10.0,West,3.5,-,N/A,,Clear,270,2012-10-20 23:55:00
8:15 PM,62.6,51.8,68,29.94,10.0,Calm,Calm,-,N/A,,Clear,0,2012-10-21 00:15:00
8:35 PM,60.8,51.8,72,29.95,10.0,Calm,Calm,-,N/A,,Clear,0,2012-10-21 00:35:00
8:55 PM,59.0,51.8,77,29.95,10.0,Calm,Calm,-,N/A,,Clear,0,2012-10-21 00:55:00
9:15 PM,59.0,53.6,82,29.96,10.0,Calm,Calm,-,N/A,,Clear,0,2012-10-21 01:15:00
9:35 PM,59.0,53.6,82,29.96,10.0,Calm,Calm,-,N/A,,Clear,0,2012-10-21 01:35:00
9:55 PM,57.2,51.8,82,29.97,10.0,Calm,Calm,-,N/A,,Clear,0,2012-10-21 01:55:00
10:15 PM,57.2,53.6,88,29.98,10.0,Calm,Calm,-,N/A,,Clear,0,2012-10-21 02:15:00
10:35 PM,57.2,53.6,88,29.98,10.0,Calm,Calm,-,N/A,,Clear,0,2012-10-21 02:35:00
10:55 PM,57.2,51.8,82,29.98,10.0,Calm,Calm,-,N/A,,Clear,0,2012-10-21 02:55:00
11:15 PM,55.4,51.8,88,29.99,10.0,Calm,Calm,-,N/A,,Clear,0,2012-10-21 03:15:00
11:35 PM,53.6,51.8,94,29.99,10.0,Calm,Calm,-,N/A,,Clear,0,2012-10-21 03:35:00
11:55 PM,55.4,51.8,88,30.00,10.0,Calm,Calm,-,N/A,,Clear,0,2012-10-21 03:55:00